When you browse on this site, cookies collect data to enhance your experience and personalize the content and advertising you see.
Visit our Privacy Policy to learn more. By continuing to use the site, you agree to this use of cookies and data.
  • In United Kingdom
  • List of Countries
  • For 7 days
  • Water Temperature
  • Weather Map
  • Weather Widgets
  • user-avatar
    Login

    Hourly Weather Tasmachi

    Today, 19 August, Monday

    Time Temperature Precipitation Wind Pressure Humidity
    00:00 +21°C° 0 mm 4 mps 721 mmHg 32%
    01:00 +21°C° 0 mm 4 mps 721 mmHg 34%
    02:00 +20°C° 0 mm 4 mps 721 mmHg 36%
    03:00 +20°C° 0 mm 4 mps 721 mmHg 39%
    04:00 +19°C° 0 mm 4 mps 721 mmHg 41%
    05:00 +21°C° 0 mm 4 mps 722 mmHg 36%
    06:00 +23°C° 0 mm 4 mps 722 mmHg 31%
    07:00 +26°C° 0 mm 4 mps 723 mmHg 27%
    08:00 +29°C° 0 mm 5 mps 723 mmHg 23%
    09:00 +32°C° 0 mm 5 mps 723 mmHg 19%
    10:00 +35°C° 0 mm 6 mps 723 mmHg 15%
    11:00 +36°C° 0 mm 5 mps 722 mmHg 14%
    12:00 +36°C° 0 mm 5 mps 722 mmHg 12%
    13:00 +37°C° 0 mm 5 mps 722 mmHg 11%
    14:00 +38°C° 0 mm 6 mps 722 mmHg 11%
    15:00 +38°C° 0 mm 6 mps 722 mmHg 11%
    16:00 +38°C° 0 mm 7 mps 721 mmHg 11%
    17:00 +35°C° 0 mm 7 mps 721 mmHg 14%
    18:00 +32°C° 0 mm 7 mps 721 mmHg 16%
    19:00 +29°C° 0 mm 6 mps 722 mmHg 19%
    20:00 +28°C° 0 mm 6 mps 721 mmHg 20%
    21:00 +27°C° 0 mm 6 mps 721 mmHg 22%
    22:00 +26°C° 0 mm 6 mps 721 mmHg 23%
    23:00 +25°C° 0 mm 5 mps 721 mmHg 25%

    Tomorrow, 20 August, Tuesday

    Time Temperature Precipitation Wind Pressure Humidity
    00:00 +25°C° 0 mm 5 mps 721 mmHg 28%
    01:00 +23°C° 0 mm 5 mps 721 mmHg 30%
    02:00 +22°C° 0 mm 4 mps 721 mmHg 33%
    03:00 +21°C° 0 mm 4 mps 721 mmHg 36%
    04:00 +20°C° 0 mm 4 mps 721 mmHg 39%
    05:00 +22°C° 0 mm 4 mps 721 mmHg 35%
    06:00 +25°C° 0 mm 4 mps 721 mmHg 32%
    07:00 +27°C° 0 mm 5 mps 722 mmHg 29%
    08:00 +29°C° 0 mm 5 mps 722 mmHg 25%
    09:00 +32°C° 0 mm 5 mps 722 mmHg 21%
    10:00 +35°C° 0 mm 5 mps 722 mmHg 16%
    11:00 +36°C° 0 mm 5 mps 721 mmHg 15%
    12:00 +37°C° 0 mm 5 mps 721 mmHg 13%
    13:00 +39°C° 0 mm 5 mps 721 mmHg 11%
    14:00 +39°C° 0 mm 6 mps 720 mmHg 11%
    15:00 +39°C° 0 mm 6 mps 720 mmHg 10%
    16:00 +40°C° 0 mm 6 mps 720 mmHg 9%
    17:00 +36°C° 0 mm 6 mps 720 mmHg 11%
    18:00 +33°C° 0 mm 5 mps 720 mmHg 13%
    19:00 +30°C° 0 mm 5 mps 720 mmHg 14%
    20:00 +29°C° 0 mm 5 mps 720 mmHg 16%
    21:00 +28°C° 0 mm 5 mps 720 mmHg 18%
    22:00 +27°C° 0 mm 5 mps 720 mmHg 21%
    23:00 +26°C° 0 mm 5 mps 720 mmHg 22%

    Day after tomorrow, 21 August, Wednesday

    Time Temperature Precipitation Wind Pressure Humidity
    00:00 +25°C° 0 mm 5 mps 719 mmHg 24%
    01:00 +25°C° 0 mm 4 mps 719 mmHg 25%
    02:00 +23°C° 0 mm 4 mps 719 mmHg 27%
    03:00 +22°C° 0 mm 4 mps 719 mmHg 29%
    04:00 +21°C° 0 mm 4 mps 719 mmHg 32%
    05:00 +23°C° 0 mm 4 mps 719 mmHg 28%
    06:00 +27°C° 0 mm 4 mps 720 mmHg 25%
    07:00 +29°C° 0 mm 4 mps 720 mmHg 21%
    08:00 +32°C° 0 mm 5 mps 720 mmHg 19%
    09:00 +34°C° 0 mm 5 mps 720 mmHg 16%
    10:00 +36°C° 0 mm 6 mps 721 mmHg 14%
    11:00 +38°C° 0 mm 6 mps 720 mmHg 13%
    12:00 +39°C° 0 mm 6 mps 720 mmHg 12%
    13:00 +40°C° 0 mm 6 mps 720 mmHg 12%
    14:00 +40°C° 0 mm 6 mps 719 mmHg 13%
    15:00 +40°C° 0 mm 7 mps 719 mmHg 13%
    16:00 +39°C° 0 mm 7 mps 719 mmHg 14%
    17:00 +36°C° 0 mm 7 mps 719 mmHg 16%
    18:00 +34°C° 0 mm 7 mps 719 mmHg 18%
    19:00 +32°C° 0 mm 7 mps 719 mmHg 21%
    20:00 +30°C° 0 mm 7 mps 719 mmHg 22%
    21:00 +29°C° 0 mm 7 mps 719 mmHg 24%
    22:00 +28°C° 0 mm 7 mps 720 mmHg 25%
    23:00 +27°C° 0 mm 6 mps 719 mmHg 26%

    22 August, Thursday

    Time Temperature Precipitation Wind Pressure Humidity
    00:00 +26°C° 0 mm 6 mps 719 mmHg 28%
    01:00 +25°C° 0 mm 5 mps 719 mmHg 29%
    02:00 +23°C° 0 mm 4 mps 719 mmHg 32%
    03:00 +22°C° 0 mm 4 mps 718 mmHg 34%
    04:00 +21°C° 0 mm 3 mps 718 mmHg 36%
    05:00 +24°C° 0 mm 3 mps 718 mmHg 32%
    06:00 +26°C° 0 mm 4 mps 719 mmHg 29%
    07:00 +29°C° 0 mm 4 mps 719 mmHg 25%
    08:00 +32°C° 0 mm 5 mps 719 mmHg 22%
    09:00 +35°C° 0 mm 6 mps 719 mmHg 18%
    10:00 +38°C° 0 mm 7 mps 720 mmHg 15%
    11:00 +39°C° 0 mm 7 mps 719 mmHg 14%
    12:00 +40°C° 0 mm 7 mps 719 mmHg 13%
    13:00 +40°C° 0 mm 7 mps 719 mmHg 13%
    14:00 +40°C° 0 mm 8 mps 718 mmHg 13%
    15:00 +40°C° 0 mm 8 mps 718 mmHg 13%
    16:00 +40°C° 0 mm 8 mps 718 mmHg 13%
    17:00 +36°C° 0 mm 7 mps 718 mmHg 16%
    18:00 +34°C° 0 mm 5 mps 718 mmHg 18%
    19:00 +30°C° 0 mm 4 mps 718 mmHg 20%
    20:00 +30°C° 0 mm 5 mps 718 mmHg 22%
    21:00 +29°C° 0 mm 6 mps 718 mmHg 23%
    22:00 +29°C° 0 mm 6 mps 719 mmHg 25%
    23:00 +28°C° 0 mm 6 mps 718 mmHg 28%

    23 August, Friday

    Time Temperature Precipitation Wind Pressure Humidity
    00:00 +27°C° 0 mm 5 mps 718 mmHg 31%
    01:00 +26°C° 0 mm 4 mps 718 mmHg 34%
    02:00 +24°C° 0 mm 3 mps 718 mmHg 38%
    03:00 +23°C° 0 mm 2 mps 718 mmHg 43%
    04:00 +21°C° 0 mm 1 mps 718 mmHg 47%
    05:00 +23°C° 0 mm 1 mps 718 mmHg 42%
    06:00 +25°C° 0 mm 1 mps 719 mmHg 37%
    07:00 +27°C° 0 mm 1 mps 719 mmHg 32%
    08:00 +29°C° 0 mm 2 mps 719 mmHg 29%
    09:00 +31°C° 0 mm 2 mps 719 mmHg 26%
    10:00 +34°C° 0 mm 3 mps 719 mmHg 22%
    11:00 +35°C° 0 mm 4 mps 719 mmHg 21%
    12:00 +36°C° 0 mm 5 mps 719 mmHg 19%
    13:00 +38°C° 0 mm 6 mps 719 mmHg 17%
    14:00 +38°C° 0 mm 6 mps 719 mmHg 17%
    15:00 +38°C° 0 mm 7 mps 719 mmHg 17%
    16:00 +36°C° 0 mm 7 mps 719 mmHg 16%
    17:00 +34°C° 0 mm 6 mps 719 mmHg 18%
    18:00 +32°C° 0 mm 5 mps 719 mmHg 19%
    19:00 +28°C° 0 mm 5 mps 719 mmHg 21%
    20:00 +27°C° 0 mm 4 mps 719 mmHg 23%
    21:00 +26°C° 0 mm 3 mps 719 mmHg 25%
    22:00 +24°C° 0 mm 2 mps 719 mmHg 27%
    23:00 +24°C° 0 mm 2 mps 719 mmHg 28%

    24 August, Saturday

    Time Temperature Precipitation Wind Pressure Humidity
    00:00 +24°C° 0 mm 3 mps 718 mmHg 28%
    01:00 +22°C° 0 mm 3 mps 718 mmHg 29%
    02:00 +23°C° 0 mm 2 mps 718 mmHg 33%
    03:00 +21°C° 0 mm 2 mps 718 mmHg 37%
    04:00 +21°C° 0 mm 2 mps 718 mmHg 41%
    05:00 +24°C° 0 mm 2 mps 719 mmHg 37%
    06:00 +26°C° 0 mm 2 mps 719 mmHg 33%
    07:00 +29°C° 0 mm 2 mps 720 mmHg 28%
    08:00 +31°C° 0 mm 2 mps 720 mmHg 25%
    09:00 +34°C° 0 mm 2 mps 720 mmHg 21%
    10:00 +37°C° 0 mm 2 mps 720 mmHg 17%
    11:00 +37°C° 0 mm 1 mps 720 mmHg 16%
    12:00 +39°C° 0 mm 1 mps 720 mmHg 14%
    13:00 +40°C° 0 mm 1 mps 719 mmHg 13%
    14:00 +40°C° 0 mm 2 mps 719 mmHg 12%
    15:00 +40°C° 0 mm 2 mps 719 mmHg 11%
    16:00 +40°C° 0 mm 3 mps 719 mmHg 11%
    17:00 +37°C° 0 mm 4 mps 719 mmHg 13%
    18:00 +34°C° 0 mm 4 mps 718 mmHg 16%
    19:00 +30°C° 0 mm 5 mps 718 mmHg 19%
    20:00 +29°C° 0 mm 4 mps 718 mmHg 20%
    21:00 +28°C° 0 mm 3 mps 718 mmHg 21%
    22:00 +27°C° 0 mm 2 mps 718 mmHg 21%
    23:00 +25°C° 0 mm 2 mps 718 mmHg 24%
    Show more